Regional Weather Roundup
Issued by NWS Lake Charles, LA

Home | Current Version | Previous Version | Text Only | Print | Product List | Glossary On
Versions: 1 2 3 4 5 6 7 8 9 10 11 12 13 14 15 16 17 18 19 20 21 22 23 24 25 26 27
000
ASUS44 KLCH 290510
RWRLCH
REGIONAL WEATHER ROUNDUP
NATIONAL WEATHER SERVICE LAKE CHARLES LA
1200 AM CDT SUN MAY 29 2016

Note: "fair" indicates few or no clouds below 12,000 feet with no
significant weather and/or obstructions to visibility.


ACROSS SOUTHEAST TEXAS

CITY           SKY/WX    TMP DP  RH WIND       PRES   REMARKS
BEAUMONT       CLOUDY    73  71  93 CALM      30.03R
BEAUMONT CITY  FAIR      74  71  90 CALM      30.04S
ORANGE         PTCLDY    73  70  91 CALM      30.05S
JASPER         PTCLDY    69  68  94 CALM      30.07S
$$

ACROSS CENTRAL LOUISIANA

CITY           SKY/WX    TMP DP  RH WIND       PRES   REMARKS
LEESVILLE      CLEAR     71  70  94 E5        30.04F
FULLERTON      FAIR      71  69  93 CALM      30.03S
ALEXANDRIA INT CLEAR     73  70  90 CALM      30.03S
ESLER FIELD    CLEAR     71  68  90 CALM      30.05S FOG
DERIDDER       FAIR      70  68  95 CALM      30.07S
OAKDALE        CLEAR     69  69  98 CALM      30.05F
OPELOUSAS      FAIR      72  70  93 E3        30.06S
$$

ACROSS SOUTHWEST AND SOUTH CENTRAL LOUISIANA

CITY           SKY/WX    TMP DP  RH WIND       PRES   REMARKS
SULPHUR        PTCLDY    76  74  93 E3        30.05S
LAKE CHARLES   FOG       75  73  93 SE5       30.04F VSB 3/4
CHENNAULT INT  NOT AVBL
CAMERON PHI    PTCLDY    79  75  89 SE7       30.07S
DEQUINCY       FAIR      71  71 100 CALM      30.05S
JENNINGS       FAIR      75  73  94 SE5       30.05S
LAFAYETTE      CLEAR     74  71  91 CALM      30.06R
NEW IBERIA     CLEAR     73  70  90 SE3       30.07R
ABBEVILLE      FAIR      72  72 100 CALM      30.06S
PATTERSON      CLEAR     71  70  96 CALM      30.07S
SALT POINT       N/A     73  71  93 CALM      30.05
$$

SELECTED SITES ACROSS THE REGION

CITY           SKY/WX    TMP DP  RH WIND       PRES   REMARKS
HOUSTON BUSH   CLOUDY    74  72  93 CALM      30.04R
HOUSTON HOBBY  CLOUDY    77  73  87 CALM      30.03R
GALVESTON      MOCLDY    78  74  87 SE9       30.03S
COLLEGE STAT   CLOUDY    78  72  81 S7        30.04R
CONROE         MOCLDY    75  72  90 CALM      30.06R
HUNTSVILLE     CLOUDY    77  72  84 S6        30.05R
LUFKIN         CLOUDY    73  69  87 S5        30.04R
SHREVEPORT     CLEAR     74  70  87 SE5       30.03S
MONROE         CLEAR     72  70  93 SE3       30.06R
NATCHEZ MS     CLEAR     72  66  83 SE5       30.07S
BATON ROUGE    CLEAR     72  68  87 CALM      30.07R
N.O. INTL ARPT PTCLDY    73  69  87 CALM      30.06S
SLIDELL        CLEAR     69  68  96 CALM      30.06S
$$

MARINE REPORTS

STATION/POSITION TIME  SKY/WX   TEMP    WIND        PRES    VSBY
                                AIR SEA DIR/SP/G
                 (UTC)          (F)     (DEG/KT/KT) (MB)    (MI)
BUOY 30 S HIGH I 0450            80 83  130/ 10/ 12 1016.1F
WVE H/P(F/S)=  3/ 6

SEA RIM ST PARK  0500            79     150/  5/  6 1017.3S
PORT ARTHUR      0400               79  160/  4/  6 1017.2R
SABINE PASS N    0400            79 80  160/  5/  7 1018.3R
TEXAS POINT      NOT AVBL
CALCASIEU PASS   0400            79 81  160/  7/  8 1016.5R
LK CHARLES BEACH 0400            78 78              1017.9R
MARSH ISLAND     0400            79                   N/A
FRESH WATER LOCK 0400            77 81  120/  5/  6 1018.3R
AMERADA PASS     0400            73 77   80/  2/  3 1017.7R
$$




USA.gov is the U.S. government's official web portal to all federal, state and local government web resources and services.